Location: Las Vegas
(36.1750°N, 115.1360°W)
Time: 12:36:40
(UTC-07:00)

Amateur Radio Satellites - All Passes

Search period start: 31 July 2014 12:06
Search period end: 01 August 2014 12:06
Location: Las Vegas, 36.1750°N, 115.1360°W

Satellite Date Start Highest point End Downlink Frequencies (MHz)
Time Altitude Azimuth
Oscar 16 31 Jul 12:15:14 12:18:18 16° 64° (ENE) 12:21:23 437.025 USB, Beacon 2401.1428
SO-50 31 Jul 12:21:31 12:25:41 39° 305° (NW) 12:29:58 436.795 FM
UOSAT-12 31 Jul 12:28:36 12:31:26 16° 108° (ESE) 12:34:19 437.025 FM, 437.400 FM
ITAMSAT 1 31 Jul 12:42:40 12:44:59 13° 62° (ENE) 12:47:18 435.822 SSB
KITSAT 1 31 Jul 12:45:28 12:49:25 14° 34° (NE) 12:53:20 435.175 FM
Uribyol 2 31 Jul 12:59:44 13:03:30 21° 66° (ENE) 13:07:16 436.500 FM
AO-27 31 Jul 13:00:57 13:04:43 21° 66° (ENE) 13:08:29 436.795 MHz FM
RS-15 31 Jul 13:04:05 13:15:18 86° 117° (ESE) 13:26:16 29.354 - 29.394 USB, Beacon 29.352 USB
AO-Echo 31 Jul 13:18:22 13:22:58 31° 69° (ENE) 13:27:35 ?
Oscar 19 31 Jul 13:23:10 13:28:14 73° 75° (ENE) 13:33:21 437.125 CW, 437.150 USB
JAS-1B 31 Jul 13:38:10 13:46:27 43° 65° (ENE) 13:55:27 435.800 - 435.900 CW/SSB
Gurwin Techsat 1B 31 Jul 13:39:02 13:42:40 19° 65° (ENE) 13:46:19 435.225 FM
Oscar 16 31 Jul 13:52:11 13:57:10 54° 260° (W) 14:02:12 437.025 USB, Beacon 2401.1428
UOSAT-12 31 Jul 14:06:44 14:11:09 47° 304° (NW) 14:15:41 437.025 FM, 437.400 FM
ITAMSAT 1 31 Jul 14:18:38 14:23:50 72° 258° (WSW) 14:29:03 435.822 SSB
AO-7 31 Jul 14:33:29 14:39:21 22° 56° (NE) 14:45:14 29.400 - 29.500 MHz
Uribyol 2 31 Jul 14:37:43 14:42:38 43° 261° (W) 14:47:34 436.500 FM
KITSAT 1 31 Jul 14:38:46 14:46:44 58° 58° (ENE) 14:54:37 435.175 FM
AO-27 31 Jul 14:38:55 14:43:53 44° 261° (W) 14:48:52 436.795 MHz FM
TMSAT-1 31 Jul 14:50:40 14:55:54 67° 74° (ENE) 15:01:10 436.925 FM
AO-Echo 31 Jul 14:57:03 15:01:38 29° 264° (W) 15:06:15 ?
Oscar 19 31 Jul 15:06:59 15:08:04 11° 270° (W) 15:09:09 437.125 CW, 437.150 USB
Gurwin Techsat 1B 31 Jul 15:17:06 15:22:13 49° 260° (W) 15:27:22 435.225 FM
Uosat F 31 Jul 15:18:24 15:22:32 26° 68° (ENE) 15:26:41 435.120 FM
RS-15 31 Jul 15:20:00 15:29:02 28° 321° (NW) 15:38:03 29.354 - 29.394 USB, Beacon 29.352 USB
JAS-1B 31 Jul 15:28:13 15:36:38 48° 263° (W) 15:46:01 435.800 - 435.900 CW/SSB
Saudisat 1A 31 Jul 15:34:26 15:38:40 44° 56° (NE) 15:42:52 436.775 MHz
OPAL 31 Jul 16:21:59 16:26:47 40° 101° (E) 16:31:36 ?
AO-7 31 Jul 16:22:50 16:31:12 80° 254° (WSW) 16:39:36 29.400 - 29.500 MHz
TMSAT-1 31 Jul 16:33:58 16:36:14 13° 269° (W) 16:38:32 436.925 FM
KITSAT 1 31 Jul 16:35:02 16:41:35 28° 255° (WSW) 16:48:07 435.175 FM
Uosat F 31 Jul 16:56:42 17:01:10 32° 263° (W) 17:05:39 435.120 FM
Saudisat 1A 31 Jul 17:15:13 17:17:51 16° 251° (WSW) 17:20:29 436.775 MHz
Hamsat 31 Jul 17:25:13 17:28:59 34° 72° (ENE) 17:32:47 145.90 MHz
JAS-2 31 Jul 17:36:53 17:44:21 52° 71° (ENE) 17:51:19 435.800 - 435.900 CW/SSB, 435.910 FM
RS-15 31 Jul 17:42:39 17:46:59 13° 357° (N) 17:51:20 29.354 - 29.394 USB, Beacon 29.352 USB
OPAL 31 Jul 18:01:31 18:05:23 22° 295° (WNW) 18:09:16 ?
AO-7 31 Jul 18:21:40 18:25:01 13° 270° (W) 18:28:24 29.400 - 29.500 MHz
STRAND 1 31 Jul 18:50:10 18:54:43 32° 97° (E) 18:59:15 ?
SO-67 31 Jul 18:59:50 19:03:16 64° 77° (ENE) 19:06:42 435.3500 MHz FM
Hamsat 31 Jul 19:02:26 19:05:02 16° 267° (W) 19:07:40 145.90 MHz
SO-50 31 Jul 19:16:55 19:18:39 12° 43° (NE) 19:20:23 436.795 FM
JAS-2 31 Jul 19:22:51 19:29:25 30° 265° (W) 19:35:43 435.800 - 435.900 CW/SSB, 435.910 FM
HO-68 31 Jul 19:39:58 19:45:29 25° 61° (ENE) 19:50:59 435.675 MHz FM
UKube-1 31 Jul 19:56:46 19:57:44 11° 64° (ENE) 19:58:41 145.840 MHz, 145.915 MHz
RS-15 31 Jul 19:57:09 20:05:30 24° 34° (NE) 20:13:58 29.354 - 29.394 USB, Beacon 29.352 USB
STRAND 1 31 Jul 20:29:35 20:33:44 26° 292° (WNW) 20:37:53 ?
MaSat-1 31 Jul 20:32:38 20:36:38 80° 294° (WNW) 20:41:20 437.345 MHz
Oscar 11 31 Jul 20:36:59 20:39:23 15° 67° (ENE) 20:41:46 145.825 FM, Beacon 2401.500 USB
SO-50 31 Jul 20:55:06 20:59:53 87° 61° (ENE) 21:04:44 436.795 FM
FUNcube-1 31 Jul 21:08:15 21:09:33 11° 66° (ENE) 21:10:52 145.950 - 145.970 MHz USB
HO-68 31 Jul 21:25:36 21:32:38 59° 258° (WSW) 21:39:43 435.675 MHz FM
UKube-1 31 Jul 21:29:02 21:33:21 64° 258° (WSW) 21:37:42 145.840 MHz, 145.915 MHz
RS-15 31 Jul 22:08:48 22:19:56 78° 59° (ENE) 22:31:29 29.354 - 29.394 USB, Beacon 29.352 USB
ISS 31 Jul 22:10:04 22:13:23 78° 319° (NW) 22:16:44 145.800 FM
Oscar 11 31 Jul 22:11:06 22:15:10 42° 261° (W) 22:19:17 145.825 FM, Beacon 2401.500 USB
Oscar 10/S400 31 Jul 22:20:56 22:42:47 69° 166° (SSE) 07:53:07 145.825 - 145.975 CW/USB, Beacon 145.810 USB
PCSat 31 Jul 22:28:01 22:30:13 13° 103° (ESE) 22:32:26 145.825 MHz
UOSAT-12 31 Jul 22:38:40 22:43:24 70° 59° (ENE) 22:48:02 437.025 FM, 437.400 FM
FUNcube-1 31 Jul 22:41:15 22:45:29 55° 260° (W) 22:49:39 145.950 - 145.970 MHz USB
Sapphire 31 Jul 23:34:40 23:39:53 53° 112° (ESE) 23:45:09 437.095 MHz 1200 baud AX-25 AFSK
AO-40 31 Jul 23:42:03 05:38:35 44° 161° (SSE) 07:18:43 Beacon 2401.320
ISS 31 Jul 23:48:58 23:50:34 13° 336° (NNW) 23:52:11 145.800 FM
PCSat 01 Aug 00:07:33 00:12:56 72° 298° (WNW) 00:18:22 145.825 MHz
UOSAT-12 01 Aug 00:21:44 00:22:54 11° 254° (WSW) 00:24:03 437.025 FM, 437.400 FM
RS-15 01 Aug 00:22:49 00:31:08 25° 257° (WSW) 00:39:45 29.354 - 29.394 USB, Beacon 29.352 USB
Sapphire 01 Aug 01:19:37 01:23:37 21° 309° (NW) 01:27:39 437.095 MHz 1200 baud AX-25 AFSK
AO-Echo 01 Aug 01:31:23 01:32:20 11° 90° (E) 01:33:16 ?
JAS-1B 01 Aug 01:32:07 01:35:02 12° 82° (E) 01:37:48 435.800 - 435.900 CW/SSB
Oscar 19 01 Aug 01:37:49 01:42:26 32° 97° (E) 01:47:02 437.125 CW, 437.150 USB
PCSat 01 Aug 01:56:02 01:57:18 11° 317° (NW) 01:58:35 145.825 MHz
Oscar 16 01 Aug 02:06:24 02:11:34 66° 102° (ESE) 02:16:42 437.025 USB, Beacon 2401.1428
ITAMSAT 1 01 Aug 02:34:22 02:39:25 51° 100° (E) 02:44:25 435.822 SSB
Uribyol 2 01 Aug 02:52:51 02:58:02 84° 103° (ESE) 03:03:11 436.500 FM
AO-27 01 Aug 02:54:24 02:59:36 83° 103° (ESE) 03:04:46 436.795 MHz FM
AO-Echo 01 Aug 03:06:38 03:11:37 69° 285° (WNW) 03:16:24 ?
PANSAT 01 Aug 03:07:07 03:09:51 18° 167° (SSE) 03:12:35 not established
TMSAT-1 01 Aug 03:09:37 03:14:22 33° 97° (E) 03:19:04 436.925 FM
Oscar 19 01 Aug 03:17:20 03:21:37 27° 292° (WNW) 03:25:54 437.125 CW, 437.150 USB
JAS-1B 01 Aug 03:18:08 03:27:16 77° 102° (ESE) 03:34:50 435.800 - 435.900 CW/SSB
OPAL 01 Aug 03:34:30 03:39:17 53° 71° (ENE) 03:44:06 ?
Gurwin Techsat 1B 01 Aug 03:35:49 03:41:10 84° 103° (ESE) 03:46:28 435.225 FM
Oscar 16 01 Aug 03:47:46 03:50:19 14° 297° (WNW) 03:52:52 437.025 USB, Beacon 2401.1428
ITAMSAT 1 01 Aug 04:15:08 04:18:27 18° 295° (WNW) 04:21:47 435.822 SSB
AO-7 01 Aug 04:27:51 04:35:37 42° 100° (E) 04:43:17 29.400 - 29.500 MHz
Uribyol 2 01 Aug 04:35:36 04:36:45 11° 299° (WNW) 04:37:53 436.500 FM
AO-27 01 Aug 04:37:04 04:38:22 11° 299° (WNW) 04:39:39 436.795 MHz FM
ISS 01 Aug 04:41:07 04:44:17 38° 36° (NE) 04:47:27 145.800 FM
PANSAT 01 Aug 04:46:17 04:49:33 26° 180° (S) 04:52:48 not established
TMSAT-1 01 Aug 04:49:44 04:54:07 27° 292° (WNW) 04:58:30 436.925 FM
MaSat-1 01 Aug 04:54:31 04:57:54 17° 52° (NE) 05:01:09 437.345 MHz
KITSAT 1 01 Aug 05:03:36 05:11:28 58° 112° (ESE) 05:19:21 435.175 FM
Uosat F 01 Aug 05:06:26 05:11:28 83° 284° (WNW) 05:16:27 435.120 FM
JAS-1B 01 Aug 05:09:58 05:16:34 23° 303° (WNW) 05:22:32 435.800 - 435.900 CW/SSB
OPAL 01 Aug 05:15:45 05:18:27 15° 265° (W) 05:21:11 ?
Gurwin Techsat 1B 01 Aug 05:18:50 05:20:21 11° 299° (WNW) 05:21:53 435.225 FM
Saudisat 1A 01 Aug 05:39:16 05:42:38 22° 111° (ESE) 05:46:01 436.775 MHz
STRAND 1 01 Aug 06:03:30 06:08:10 36° 70° (ENE) 06:12:51 ?
ISS 01 Aug 06:18:24 06:20:47 18° 231° (SW) 06:23:10 145.800 FM
AO-7 01 Aug 06:20:42 06:28:16 41° 297° (WNW) 06:35:47 29.400 - 29.500 MHz
PANSAT 01 Aug 06:26:26 06:29:14 19° 192° (SSW) 06:32:03 not established
MaSat-1 01 Aug 06:30:32 06:35:43 62° 250° (WSW) 06:40:27 437.345 MHz
JAS-2 01 Aug 06:35:33 06:41:01 48° 99° (E) 06:46:03 435.800 - 435.900 CW/SSB, 435.910 FM
Hamsat 01 Aug 06:48:50 06:53:10 77° 283° (WNW) 06:57:30 145.90 MHz
KITSAT 1 01 Aug 07:00:11 07:07:13 32° 311° (NW) 07:14:18 435.175 FM
Saudisat 1A 01 Aug 07:18:00 07:22:00 33° 306° (NW) 07:26:02 436.775 MHz
STRAND 1 01 Aug 07:43:23 07:47:24 23° 265° (W) 07:51:27 ?
SO-67 01 Aug 07:59:14 08:02:42 68° 283° (WNW) 08:06:08 435.3500 MHz FM
JAS-2 01 Aug 08:21:47 08:25:37 19° 297° (WNW) 08:29:15 435.800 - 435.900 CW/SSB, 435.910 FM
Sapphire 01 Aug 08:25:43 08:30:12 25° 53° (NE) 08:34:39 437.095 MHz 1200 baud AX-25 AFSK
HO-68 01 Aug 08:56:39 09:02:51 31° 97° (E) 09:08:59 435.675 MHz FM
PCSat 01 Aug 08:58:14 09:03:31 51° 59° (ENE) 09:08:46 145.825 MHz
UKube-1 01 Aug 09:20:31 09:24:09 26° 97° (E) 09:27:46 145.840 MHz, 145.915 MHz
Oscar 11 01 Aug 10:01:15 10:05:21 40° 99° (E) 10:09:26 145.825 FM, Beacon 2401.500 USB
Sapphire 01 Aug 10:08:40 10:13:44 41° 250° (WSW) 10:18:46 437.095 MHz 1200 baud AX-25 AFSK
RS-15 01 Aug 10:27:42 10:29:11 10° 96° (E) 10:30:39 29.354 - 29.394 USB, Beacon 29.352 USB
FUNcube-1 01 Aug 10:33:08 10:36:55 32° 98° (E) 10:40:43 145.950 - 145.970 MHz USB
PCSat 01 Aug 10:42:47 10:46:29 19° 255° (WSW) 10:50:10 145.825 MHz
HO-68 01 Aug 10:43:56 10:50:37 45° 293° (WNW) 10:57:16 435.675 MHz FM
UKube-1 01 Aug 10:56:45 11:00:14 24° 291° (WNW) 11:03:41 145.840 MHz, 145.915 MHz
SO-50 01 Aug 11:07:41 11:12:00 52° 116° (ESE) 11:16:24 436.795 FM
Oscar 11 01 Aug 11:38:34 11:41:11 16° 293° (WNW) 11:43:48 145.825 FM, Beacon 2401.500 USB
